Powrót do katalogu

MIDAS 4 DEB

AktywnyPO
NORAD 27478·DEBRIS·🇺🇸 United States

Wystrzelony Oct 21, 1961 z Vandenberg Space Force Base

Loading…

Następne Przeloty (najbliższe 24 godziny)

TLE

ŚwieżeSource: Space-Track

Epoka: Sep 11, 2026, 21:26 UTC

1 27478U 61028H   26254.89330720 -.00000015  00000-0 -49256-2 0  9992
2 27478  95.8521 236.3976 0262266 243.3471 138.6644  8.66661688598306

Śledź MIDAS 4 DEB w czasie rzeczywistym z AllMySat

Download on the App Store